Weather History for Wiscasset, ME

Change the Weather History Date:

Sunday, January 6, 2013

  Actual Average Record
Temperature  
Mean Temperature 20 °F -  
Max Temperature 32 °F 29 °F 60 °F (2007)
Min Temperature 9 °F 13 °F 0 °F (2015)
Degree Days  
Heating Degree Days 44    
Moisture  
Dew Point 17 °F    
Average Humidity 79    
Maximum Humidity 86    
Minimum Humidity 59    
Precipitation  
Precipitation 0.02 in - - ()
Sea Level Pressure  
Sea Level Pressure 30.03 in    
Wind  
Wind Speed 1 mph (West)    
Max Wind Speed 6 mph    
Max Gust Speed -    
Visibility 8 miles    
Events Fog , Snow    
Averages and records for this station are not official NWS values.
T = Trace of Precipitation, MM = Missing Value Source: NWS Daily Summary

Daily Weather History Graph

Daily Weather History Graph

Search for Another Location

Airport:

Trip Planner

Search our weather history database for the weather conditions in past years. The results will help you decide how hot, cold, wet, or windy it might be!

Date:

Astronomy

Jan. 06, 2013 Rise Set
Actual Time 7:13 AM EST 4:16 PM EST
Civil Twilight 6:40 AM EST 4:49 PM EST
Nautical Twilight 6:04 AM EST 5:25 PM EST
Astronomical Twilight 5:29 AM EST 6:00 PM EST
Moon 1:18 AM EST (1/6) 11:45 AM EST (1/6)
Length of Visible Light 10h 08m
Length of Day
9h 03m
Waning Crescent, 33% of the Moon is Illuminated
Jan 6
Waning Crescent
Jan 11
New
Jan 18
First Quarter
Jan 26
Full
Feb 3
Last Quarter

Hourly Weather History & Observations

Time (EST) Temp. Windchill Dew Point Humidity Pressure Visibility Wind Dir Wind Speed Gust Speed Precip Events Conditions
12:53 AM 10.9 °F - 6.1 °F 81% 30.24 in 10.0 mi Calm Calm - N/A   Clear
1:53 AM 9.0 °F - 5.0 °F 84% 30.22 in 10.0 mi Calm Calm - N/A   Clear
2:53 AM 12.0 °F - 7.0 °F 80% 30.22 in 10.0 mi Calm Calm - N/A   Clear
3:53 AM 17.1 °F - 10.0 °F 74% 30.17 in 10.0 mi Calm Calm - N/A   Clear
4:53 AM 18.0 °F - 10.9 °F 74% 30.14 in 10.0 mi Calm Calm - N/A   Overcast
5:53 AM 19.0 °F - 12.0 °F 74% 30.11 in 10.0 mi Calm Calm - N/A   Overcast
6:53 AM 19.9 °F - 12.0 °F 71% 30.09 in 10.0 mi Calm Calm - 0.00 in Snow Light Snow
7:28 AM 19.4 °F - 15.8 °F 86% 30.07 in 1.2 mi Calm Calm - 0.00 in Snow Light Snow
7:53 AM 19.9 °F 14.9 °F 15.1 °F 81% 30.07 in 1.2 mi Variable 3.5 mph - 0.00 in Snow Light Snow
8:13 AM 19.4 °F - 15.8 °F 86% 30.06 in 0.5 mi Calm Calm - 0.00 in Snow Snow
8:18 AM 19.4 °F - 15.8 °F 86% 30.06 in 0.5 mi Calm Calm - 0.00 in Fog , Snow Snow
8:26 AM 19.4 °F - 15.8 °F 86% 30.05 in 1.5 mi Calm Calm - 0.00 in Snow Light Snow
8:29 AM 19.4 °F - 15.8 °F 86% 30.06 in 3.0 mi Calm Calm - 0.00 in Snow Light Snow
8:53 AM 19.9 °F - 16.0 °F 85% 30.06 in 10.0 mi Calm Calm - 0.00 in Snow Light Snow
9:53 AM 21.9 °F - 17.1 °F 82% 30.05 in 5.0 mi Calm Calm - 0.00 in Snow Light Snow
10:28 AM 23.0 °F - 17.6 °F 80% 30.02 in 9.0 mi Calm Calm - 0.00 in   Overcast
10:53 AM 24.1 °F - 19.0 °F 81% 30.00 in 10.0 mi Calm Calm - 0.00 in   Overcast
11:08 AM 24.8 °F - 19.4 °F 80% 29.99 in 10.0 mi Calm Calm - N/A   Mostly Cloudy
11:53 AM 28.0 °F - 19.9 °F 72% 29.96 in 10.0 mi Calm Calm - 0.02 in   Partly Cloudy
12:09 PM 28.4 °F 22.2 °F 21.2 °F 74% 29.95 in 10.0 mi West 5.8 mph - N/A   Mostly Cloudy
12:28 PM 28.4 °F 23.3 °F 21.2 °F 74% 29.94 in 10.0 mi Variable 4.6 mph - N/A   Scattered Clouds
12:53 PM 28.9 °F 25.2 °F 19.9 °F 69% 29.95 in 10.0 mi Variable 3.5 mph - N/A   Clear
1:53 PM 30.9 °F 25.2 °F 19.9 °F 64% 29.94 in 10.0 mi WSW 5.8 mph - N/A   Clear
2:53 PM 32.0 °F 27.5 °F 19.0 °F 59% 29.94 in 10.0 mi West 4.6 mph - N/A   Clear
3:53 PM 28.0 °F - 19.9 °F 72% 29.93 in 10.0 mi Calm Calm - N/A   Clear
4:53 PM 24.1 °F - 18.0 °F 77% 29.93 in 10.0 mi Calm Calm - N/A   Clear
5:53 PM 23.0 °F - 18.0 °F 81% 29.96 in 10.0 mi Calm Calm - N/A   Partly Cloudy
6:53 PM 24.1 °F - 19.9 °F 84% 29.95 in 10.0 mi Calm Calm - N/A   Overcast
7:53 PM 24.1 °F - 19.9 °F 84% 29.96 in 10.0 mi Calm Calm - N/A   Overcast
8:53 PM 25.0 °F - 21.0 °F 85% 29.95 in 10.0 mi Calm Calm - N/A   Overcast
9:53 PM 26.1 °F - 21.9 °F 84% 29.95 in 10.0 mi Calm Calm - N/A   Overcast
10:53 PM 26.1 °F - 21.0 °F 81% 29.95 in 10.0 mi Calm Calm - N/A   Overcast
11:53 PM 27.0 °F - 21.0 °F 78% 29.96 in 10.0 mi Calm Calm - N/A   Overcast